AirNav   Phillips 66 Aviation Fuel
 
 988 users online  

0IL6 Kishwaukee Hospital Heliport
De Kalb, Illinois, USA

GOING TO DE KALB?


FAA INFORMATION EFFECTIVE 14 SEPTEMBER 2017

Location

FAA Identifier: 0IL6
Lat/Long: 41-57-38.3600N / 088-43-18.3800W
41-57.639333N / 088-43.306333W
41.9606556 / -88.7217722
(estimated)
Elevation: 860 ft. / 262 m (estimated)
Variation: 03W (2010)
From city: 3 miles NE of DE KALB, IL
Time zone: UTC -5 (UTC -6 during Standard Time)
Zip code: 60115

Heliport Operations

Heliport use: Private use, MEDICAL USE.
Activation date: 02/1975
Control tower: no
ARTCC: CHICAGO CENTER
FSS: KANKAKEE FLIGHT SERVICE STATION
NOTAMs facility: FDC (NOTAM-D service not available)
Attendance: UNATNDD
Wind indicator: lighted
Segmented circle: no
Beacon: white-green-yellow (heliport)
Operates sunset to sunrise.

Heliport Communications

WX AWOS-3 at DKB (1.8 nm SE): 119.075 (815-748-2350)
WX ASOS at ARR (16 nm SE): PHONE 630-466-5622
WX AWOS-3 at RPJ (16 nm W): 125.2 (815-562-2955)

Nearby radio navigation aids

VOR radial/distance  VOR name  Freq  Var
DPAr282/17.1DUPAGE VOR/DME108.4002E
RFDr126/26.5ROCKFORD VOR/DME110.8001E
JOTr322/30.7JOLIET VORTAC112.3002E
PLLr087/35.8POLO VOR/DME111.2003E
ORDr265/36.5CHICAGO O'HARE VOR/DME113.9002E
OBKr247/37.7NORTHBROOK VOR/DME113.0002W
JVLr152/39.7JANESVILLE VOR/DME114.3003E

Heliport Services

Runway Information

Helipad H1

Dimensions: 40 x 40 ft. / 12 x 12 m
Surface: concrete
Runway edge lights: PERI
RY H1 AND LEAD-IN LGTS.
Latitude: 41-57.639333N
Longitude: 088-43.306333W
Elevation: 860.0 ft.
Traffic pattern: leftleft

Heliport Ownership and Management from official FAA records

Ownership: Privately-owned
Owner: KISHWAUKEE HEALTH SYSTEM
P.O. BOX 707
DEKALB, IL 60115
Phone 815-756-1521
Manager: PAUL SPRINGER
P.O. BOX 707
DEKALB, IL 60115
Phone (815) 762-5126
EXTENSION 3489.

Instrument Procedures

There are no published instrument procedures at 0IL6.

Some nearby airports with instrument procedures:

KDKB - De Kalb Taylor Municipal Airport (2 nm SE)
KARR - Aurora Municipal Airport (16 nm SE)
KRPJ - Rochelle Municipal Airport-Koritz Field (16 nm W)
KDPA - DuPage Airport (21 nm E)
KRFD - Chicago/Rockford International Airport (22 nm NW)
 
Loc | Ops | Rwys | IFR | FBO | Links
Com | Nav | Svcs | Stats | Notes


 
Area around 0IL6 (Kishwaukee Hospital Heliport)
 
Road maps at: MapQuest Bing Google
 
Aerial photo
No photo
 
Sectional chart

 
Airport distance calculator
Flying to Kishwaukee Hospital Heliport? Find the distance to fly.

From to 0IL6

Sunrise and sunset
Times for 23-Sep-2017
 Local
(UTC-5)
 Zulu
(UTC)
Morning civil twilight06:1611:16
Sunrise06:4411:44
Sunset18:5023:50
Evening civil twilight19:1800:18

Current date and time
Zulu (UTC)  23-Sep-2017 18:35:18
Local (UTC-5)  23-Sep-2017 13:35:18
 
METAR
KDKB 
2nm SE 
231815Z AUTO 33003KT 10SM SCT060 BKN080 33/19 A3009 RMK AO2 T03280187
KARR 
16nm SE 
231752Z VRB04KT 9SM CLR 32/19 A3010 RMK AO2 SLP185 T03220194 10322 20178 58004
KRPJ 
16nm W 
231815Z AUTO 00000KT 10SM SCT065 33/18 A3008 RMK AO2 T03260181
TAF
KDPA 
21nm E 
231733Z 2318/2418 15005KT P6SM FEW060 FM240200 VRB03KT P6SM SKC TEMPO 2409/2413 4SM BR FM241500 16006KT P6SM SKC
KRFD 
22nm NW 
231733Z 2318/2418 17006KT P6SM SCT050 FM240200 13003KT P6SM SKC FM241500 16006KT P6SM FEW045
NOTAMs
Click for the latest NOTAMs
NOTAMs are issued by the DoD/FAA and will open in a separate window not controlled by AirNav.

 

 
 

Would you like to see your business listed on this page?

 If your business provides an interesting product or service to pilots, flight crews, aircraft, or users of the Kishwaukee Hospital Heliport, you should consider listing it here.  To start the listing process, click on the button below
 
Add a business
 

Other Pages about Kishwaukee Hospital Heliport

Update a link
 
Copyright © AirNav, LLC. All rights reserved. Privacy Policy  Contact